Change the Weather History Date:

Tuesday, February 11, 2014

  Actual Average Record
Temperature  
Mean Temperature 46 °F -  
Max Temperature 57 °F 55 °F 63 °F (2015)
Min Temperature 34 °F 33 °F 34 °F (2014)
Degree Days  
Heating Degree Days 19    
Moisture  
Dew Point 25 °F    
Average Humidity 44    
Maximum Humidity 65    
Minimum Humidity 29    
Precipitation  
Precipitation 0.00 in - - ()
Sea Level Pressure  
Sea Level Pressure 30.06 in    
Wind  
Wind Speed 8 mph (South)    
Max Wind Speed 14 mph    
Max Gust Speed 20 mph    
Visibility 10 miles    
Events      
Averages and records for this station are not official NWS values.
T = Trace of Precipitation, MM = Missing Value Source: NWS Daily Summary

Daily Weather History Graph

Daily Weather History Graph

Search for Another Location

Airport or City:

Trip Planner

Search our weather history database for the weather conditions in past years. The results will help you decide how hot, cold, wet, or windy it might be!

Date:

Astronomy

Feb. 11, 2014 Rise Set
Actual Time 6:53 AM MST 5:50 PM MST
Civil Twilight 6:28 AM MST 6:15 PM MST
Nautical Twilight 5:59 AM MST 6:44 PM MST
Astronomical Twilight 5:31 AM MST 7:13 PM MST
Moon 3:17 PM MST (2/11) 4:28 AM MST (2/11)
Length of Visible Light 11h 46m
Length of Day
10h 56m
Waxing Gibbous, 91% of the Moon is Illuminated
Feb 11
Waxing Gibbous
Feb 14
Full
Feb 22
Last Quarter
Mar 1
New
Mar 8
First Quarter

Hourly Weather History & Observations

Time (MST) Temp. Windchill Dew Point Humidity Pressure Visibility Wind Dir Wind Speed Gust Speed Precip Events Conditions
12:15 AM 54.3 °F - 22.5 °F 29% 29.94 in 10.0 mi NNW 13.8 mph 19.6 mph N/A   Clear
12:35 AM 52.9 °F - 23.7 °F 32% 29.94 in 10.0 mi NW 6.9 mph - N/A   Clear
12:55 AM 51.8 °F - 25.3 °F 36% 29.94 in 10.0 mi NNW 9.2 mph - N/A   Clear
1:15 AM 51.1 °F - 26.6 °F 39% 29.95 in 10.0 mi NNW 12.7 mph - N/A   Scattered Clouds
1:35 AM 51.1 °F - 27.3 °F 40% 29.95 in 10.0 mi North 12.7 mph - N/A   Mostly Cloudy
1:55 AM 49.8 °F - 27.3 °F 42% 29.95 in 10.0 mi NW 10.4 mph - N/A   Scattered Clouds
2:15 AM 50.2 °F - 28.0 °F 42% 29.94 in 10.0 mi NNW 13.8 mph - N/A   Clear
2:35 AM 49.5 °F - 28.4 °F 44% 29.95 in 10.0 mi NNW 11.5 mph - N/A   Clear
2:55 AM 49.5 °F - 28.9 °F 45% 29.96 in 10.0 mi NNW 10.4 mph - N/A   Clear
3:15 AM 50.0 °F - 29.3 °F 45% 29.96 in 10.0 mi NNW 12.7 mph - N/A   Mostly Cloudy
3:35 AM 50.9 °F - 29.1 °F 43% 29.97 in 10.0 mi NE 9.2 mph 17.3 mph N/A   Overcast
3:55 AM 48.9 °F - 27.7 °F 44% 29.98 in 10.0 mi ESE 6.9 mph - N/A   Scattered Clouds
4:15 AM 45.5 °F 44.2 °F 25.0 °F 45% 29.99 in 10.0 mi SSE 3.5 mph - N/A   Scattered Clouds
4:35 AM 42.6 °F 39.0 °F 24.6 °F 49% 29.99 in 10.0 mi SSE 5.8 mph - N/A   Scattered Clouds
4:55 AM 41.2 °F 37.3 °F 24.8 °F 52% 29.99 in 10.0 mi SSE 5.8 mph - N/A   Scattered Clouds
5:15 AM 39.7 °F 36.5 °F 25.0 °F 56% 30.00 in 10.0 mi SSE 4.6 mph - N/A   Clear
5:35 AM 38.8 °F 34.6 °F 25.3 °F 58% 30.01 in 10.0 mi South 5.8 mph - N/A   Clear
5:55 AM 37.4 °F 32.8 °F 24.8 °F 60% 30.02 in 10.0 mi South 5.8 mph - N/A   Clear
6:15 AM 37.4 °F 34.9 °F 25.0 °F 61% 30.02 in 10.0 mi SSW 3.5 mph - N/A   Clear
6:35 AM 36.5 °F 32.7 °F 25.0 °F 63% 30.03 in 10.0 mi WSW 4.6 mph - N/A   Clear
6:55 AM 35.4 °F 32.6 °F 24.6 °F 65% 30.05 in 10.0 mi SW 3.5 mph - N/A   Clear
7:15 AM 36.1 °F 29.3 °F 25.0 °F 64% 30.05 in 10.0 mi South 9.2 mph - N/A   Clear
7:35 AM 36.5 °F 30.3 °F 24.8 °F 63% 30.08 in 10.0 mi SSW 8.1 mph - N/A   Clear
7:55 AM 36.7 °F 30.5 °F 24.8 °F 62% 30.09 in 10.0 mi SSW 8.1 mph - N/A   Clear
8:15 AM 38.1 °F 33.7 °F 25.2 °F 60% 30.11 in 10.0 mi South 5.8 mph - N/A   Clear
8:35 AM 39.4 °F 35.2 °F 25.3 °F 57% 30.11 in 10.0 mi South 5.8 mph - N/A   Clear
8:55 AM 40.8 °F 36.9 °F 25.7 °F 55% 30.13 in 10.0 mi South 5.8 mph - N/A   Clear
9:15 AM 42.4 °F 39.6 °F 25.9 °F 52% 30.14 in 10.0 mi SSW 4.6 mph - N/A   Clear
9:35 AM 43.2 °F 39.0 °F 26.1 °F 51% 30.14 in 10.0 mi SSW 6.9 mph - N/A   Clear
9:55 AM 45.0 °F 40.6 °F 26.4 °F 48% 30.14 in 10.0 mi SSW 8.1 mph - N/A   Clear
10:15 AM 46.2 °F 42.7 °F 26.4 °F 46% 30.14 in 10.0 mi SSW 6.9 mph - N/A   Clear
10:35 AM 47.1 °F - 26.4 °F 45% 30.14 in 10.0 mi South 5.8 mph - N/A   Clear
10:55 AM 46.9 °F - 26.6 °F 45% 30.14 in 10.0 mi South 5.8 mph - N/A   Clear
11:15 AM 48.9 °F - 26.6 °F 42% 30.13 in 10.0 mi South 5.8 mph - N/A   Clear
11:35 AM 50.7 °F - 26.6 °F 39% 30.13 in 10.0 mi South 5.8 mph - N/A   Clear
11:55 AM 50.5 °F - 26.6 °F 39% 30.13 in 10.0 mi SW 3.5 mph - N/A   Clear
12:15 PM 50.9 °F - 26.2 °F 38% 30.11 in 10.0 mi SSE 6.9 mph - N/A   Clear
12:35 PM 53.1 °F - 26.4 °F 36% 30.10 in 10.0 mi SSE 8.1 mph - N/A   Clear
12:55 PM 53.2 °F - 26.2 °F 35% 30.08 in 10.0 mi SE 6.9 mph - N/A   Clear
1:15 PM 54.3 °F - 26.4 °F 34% 30.08 in 10.0 mi South 8.1 mph - N/A   Clear
1:35 PM 55.4 °F - 26.2 °F 33% 30.08 in 10.0 mi South 5.8 mph - N/A   Clear
1:55 PM 54.3 °F - 26.1 °F 34% 30.08 in 10.0 mi South 4.6 mph - N/A   Clear
2:15 PM 55.8 °F - 26.1 °F 32% 30.07 in 10.0 mi SSE 4.6 mph - N/A   Clear
2:35 PM 57.2 °F - 25.7 °F 30% 30.06 in 10.0 mi SE 6.9 mph - N/A   Clear
2:55 PM 56.7 °F - 25.7 °F 30% 30.04 in 10.0 mi South 4.6 mph - N/A   Clear
3:15 PM 57.2 °F - 25.5 °F 30% 30.04 in 10.0 mi SSE 6.9 mph - N/A   Clear
3:35 PM 57.2 °F - 25.5 °F 30% 30.03 in 10.0 mi SSE 5.8 mph - N/A   Clear
3:55 PM 57.0 °F - 25.5 °F 30% 30.03 in 10.0 mi South 5.8 mph - N/A   Clear
4:15 PM 56.8 °F - 25.3 °F 30% 30.03 in 10.0 mi SSE 8.1 mph - N/A   Clear
4:35 PM 57.2 °F - 25.3 °F 29% 30.03 in 10.0 mi SSW 4.6 mph - N/A   Clear
4:55 PM 56.5 °F - 25.2 °F 30% 30.03 in 10.0 mi SSE 4.6 mph - N/A   Clear
5:15 PM 55.8 °F - 24.8 °F 30% 30.04 in 10.0 mi SSE 6.9 mph - N/A   Clear
5:35 PM 54.7 °F - 24.8 °F 32% 30.05 in 10.0 mi SSE 4.6 mph - N/A   Clear
5:55 PM 52.9 °F - 24.4 °F 33% 30.05 in 10.0 mi SSE 5.8 mph - N/A   Clear
6:15 PM 50.9 °F - 23.9 °F 35% 30.05 in 10.0 mi South 6.9 mph - N/A   Clear
6:35 PM 50.4 °F - 23.9 °F 36% 30.06 in 10.0 mi South 8.1 mph - N/A   Clear
6:55 PM 49.1 °F - 23.7 °F 37% 30.05 in 10.0 mi South 6.9 mph - N/A   Clear
7:15 PM 48.2 °F - 23.9 °F 39% 30.05 in 10.0 mi South 6.9 mph - N/A   Clear
7:35 PM 47.8 °F - 23.9 °F 39% 30.07 in 10.0 mi South 8.1 mph - N/A   Clear
7:55 PM 46.6 °F - 23.9 °F 41% 30.08 in 10.0 mi SSE 5.8 mph - N/A   Clear
8:15 PM 45.0 °F 42.6 °F 23.9 °F 44% 30.09 in 10.0 mi South 4.6 mph - N/A   Clear
8:35 PM 44.6 °F 41.4 °F 23.9 °F 44% 30.10 in 10.0 mi South 5.8 mph - N/A   Clear
8:55 PM 45.3 °F 41.1 °F 24.4 °F 44% 30.10 in 10.0 mi South 8.1 mph - N/A   Clear
9:15 PM 45.3 °F 40.6 °F 25.2 °F 45% 30.10 in 10.0 mi South 9.2 mph - N/A   Clear
9:35 PM 45.3 °F 41.6 °F 25.2 °F 45% 30.10 in 10.0 mi South 6.9 mph - N/A   Clear
9:55 PM 43.9 °F 39.9 °F 24.6 °F 47% 30.11 in 10.0 mi SSW 6.9 mph - N/A   Clear
10:15 PM 42.8 °F 38.0 °F 24.3 °F 48% 30.11 in 10.0 mi SW 8.1 mph - N/A   Clear
10:35 PM 41.0 °F 38.0 °F 23.9 °F 51% 30.11 in 10.0 mi SW 4.6 mph - N/A   Clear
10:55 PM 38.7 °F 36.3 °F 23.0 °F 53% 30.11 in 10.0 mi West 3.5 mph - N/A   Clear
11:15 PM 36.1 °F 32.3 °F 21.9 °F 56% 30.12 in 10.0 mi West 4.6 mph - N/A   Clear
11:35 PM 36.5 °F 32.7 °F 22.1 °F 56% 30.12 in 10.0 mi West 4.6 mph - N/A   Clear
11:55 PM 34.7 °F 31.8 °F 21.9 °F 60% 30.12 in 10.0 mi North 3.5 mph - N/A   Clear